owner,sensor,date,latitude,longitude,air_temperature,qcFlag 
TABS,ioos:station:wmo:42043:1,2003-02-01T15:39:00Z,28.9818,-94.9186,13.9,11144222 
TABS,ioos:station:wmo:42043:1,2003-02-01T16:09:00Z,28.9818,-94.9186,14.5,11144222 
TABS,ioos:station:wmo:42043:1,2003-02-01T16:39:00Z,28.9818,-94.9186,14.6,11144222 
TABS,ioos:station:wmo:42043:1,2003-02-01T17:09:00Z,28.9818,-94.9186,15.0,11144222 
TABS,ioos:station:wmo:42043:1,2003-02-01T17:39:00Z,28.9818,-94.9186,15.2,11144222 
TABS,ioos:station:wmo:42043:1,2003-02-01T18:09:00Z,28.9818,-94.9186,15.3,11144222 
TABS,ioos:station:wmo:42043:1,2003-02-01T18:39:00Z,28.9818,-94.9186,15.3,11144222 
TABS,ioos:station:wmo:42043:1,2003-02-01T19:09:00Z,28.9818,-94.9186,15.4,11144222 
TABS,ioos:station:wmo:42043:1,2003-02-01T19:39:00Z,28.9818,-94.9186,15.4,11144222 
TABS,ioos:station:wmo:42043:1,2003-02-01T20:09:00Z,28.9818,-94.9186,15.4,11144222 
TABS,ioos:station:wmo:42043:1,2003-02-01T20:39:00Z,28.9818,-94.9186,15.5,11144222 
TABS,ioos:station:wmo:42043:1,2003-02-01T21:09:00Z,28.9818,-94.9186,15.5,11144222 
TABS,ioos:station:wmo:42043:1,2003-02-01T21:39:00Z,28.9818,-94.9186,15.6,11144222 
TABS,ioos:station:wmo:42043:1,2003-02-01T22:09:00Z,28.9818,-94.9186,15.6,11144222 
TABS,ioos:station:wmo:42043:1,2003-02-01T22:39:00Z,28.9818,-94.9186,15.5,11144222 
TABS,ioos:station:wmo:42043:1,2003-02-01T23:09:00Z,28.9818,-94.9186,15.3,11144222 
TABS,ioos:station:wmo:42043:1,2003-02-01T23:39:00Z,28.9818,-94.9186,15.1,11144222 
TABS,ioos:station:wmo:42043:1,2003-02-02T00:09:00Z,28.9818,-94.9186,14.9,11144222 
TABS,ioos:station:wmo:42043:1,2003-02-02T00:39:00Z,28.9818,-94.9186,15.1,11144222 
TABS,ioos:station:wmo:42043:1,2003-02-02T01:09:00Z,28.9818,-94.9186,15.0,11144222 
TABS,ioos:station:wmo:42043:1,2003-02-02T01:39:00Z,28.9818,-94.9186,14.9,11144222 
TABS,ioos:station:wmo:42043:1,2003-02-02T02:09:00Z,28.9818,-94.9186,14.9,11144222 
TABS,ioos:station:wmo:42043:1,2003-02-02T02:39:00Z,28.9818,-94.9186,14.9,11144222 
TABS,ioos:station:wmo:42043:1,2003-02-02T03:09:00Z,28.9818,-94.9186,15.0,11144222 
TABS,ioos:station:wmo:42043:1,2003-02-02T03:39:00Z,28.9818,-94.9186,15.0,11144222 
TABS,ioos:station:wmo:42043:1,2003-02-02T04:09:00Z,28.9818,-94.9186,15.1,11144222 
TABS,ioos:station:wmo:42043:1,2003-02-02T04:39:00Z,28.9818,-94.9186,15.2,11144222 
TABS,ioos:station:wmo:42043:1,2003-02-02T05:09:00Z,28.9818,-94.9186,15.1,11144222 
TABS,ioos:station:wmo:42043:1,2003-02-02T05:39:00Z,28.9818,-94.9186,15.1,11144222 
TABS,ioos:station:wmo:42043:1,2003-02-02T06:09:00Z,28.9818,-94.9186,15.0,11144222 
TABS,ioos:station:wmo:42043:1,2003-02-02T06:39:00Z,28.9818,-94.9186,15.0,11144222 
TABS,ioos:station:wmo:42043:1,2003-02-02T07:09:00Z,28.9818,-94.9186,15.1,11144222 
TABS,ioos:station:wmo:42043:1,2003-02-02T07:39:00Z,28.9818,-94.9186,15.2,11144222 
TABS,ioos:station:wmo:42043:1,2003-02-02T08:09:00Z,28.9818,-94.9186,15.0,11144222 
TABS,ioos:station:wmo:42043:1,2003-02-02T08:39:00Z,28.9818,-94.9186,15.0,11144222 
TABS,ioos:station:wmo:42043:1,2003-02-02T09:09:00Z,28.9818,-94.9186,15.0,11144222 
TABS,ioos:station:wmo:42043:1,2003-02-02T09:39:00Z,28.9818,-94.9186,15.2,11144222 
TABS,ioos:station:wmo:42043:1,2003-02-02T10:09:00Z,28.9818,-94.9186,14.9,11144222 
TABS,ioos:station:wmo:42043:1,2003-02-02T10:39:00Z,28.9818,-94.9186,15.0,11144222 
TABS,ioos:station:wmo:42043:1,2003-02-02T11:09:00Z,28.9818,-94.9186,15.1,11144222 
TABS,ioos:station:wmo:42043:1,2003-02-02T11:39:00Z,28.9818,-94.9186,15.1,11144222 
TABS,ioos:station:wmo:42043:1,2003-02-02T12:09:00Z,28.9818,-94.9186,15.2,11144222 
TABS,ioos:station:wmo:42043:1,2003-02-02T12:39:00Z,28.9818,-94.9186,15.3,11144222 
TABS,ioos:station:wmo:42043:1,2003-02-02T13:09:00Z,28.9818,-94.9186,15.3,11144222 
TABS,ioos:station:wmo:42043:1,2003-02-02T13:39:00Z,28.9818,-94.9186,15.5,11144222 
TABS,ioos:station:wmo:42043:1,2003-02-02T14:09:00Z,28.9818,-94.9186,15.5,11144222 
TABS,ioos:station:wmo:42043:1,2003-02-02T14:39:00Z,28.9818,-94.9186,15.6,11144222 
TABS,ioos:station:wmo:42043:1,2003-02-02T15:09:00Z,28.9818,-94.9186,15.6,11144222 
TABS,ioos:station:wmo:42043:1,2003-02-02T15:39:00Z,28.9818,-94.9186,15.9,11144222 
TABS,ioos:station:wmo:42043:1,2003-02-02T16:09:00Z,28.9818,-94.9186,15.8,11144222 
TABS,ioos:station:wmo:42043:1,2003-02-02T16:39:00Z,28.9818,-94.9186,15.8,11144222 
TABS,ioos:station:wmo:42043:1,2003-02-02T17:09:00Z,28.9818,-94.9186,15.8,11144222 
TABS,ioos:station:wmo:42043:1,2003-02-02T17:39:00Z,28.9818,-94.9186,15.9,11144222 
TABS,ioos:station:wmo:42043:1,2003-02-02T18:09:00Z,28.9818,-94.9186,16.2,11144222 
TABS,ioos:station:wmo:42043:1,2003-02-02T18:39:00Z,28.9818,-94.9186,16.3,11144222 
TABS,ioos:station:wmo:42043:1,2003-02-02T19:09:00Z,28.9818,-94.9186,16.4,11144222 
TABS,ioos:station:wmo:42043:1,2003-02-02T19:39:00Z,28.9818,-94.9186,16.5,11144222 
TABS,ioos:station:wmo:42043:1,2003-02-02T20:09:00Z,28.9818,-94.9186,16.5,11144222 
TABS,ioos:station:wmo:42043:1,2003-02-02T20:39:00Z,28.9818,-94.9186,16.7,11144222 
TABS,ioos:station:wmo:42043:1,2003-02-02T21:09:00Z,28.9818,-94.9186,17.0,11144222 
TABS,ioos:station:wmo:42043:1,2003-02-02T22:39:00Z,28.9818,-94.9186,16.9,11144222 
TABS,ioos:station:wmo:42043:1,2003-02-02T23:09:00Z,28.9818,-94.9186,16.7,11144222 
TABS,ioos:station:wmo:42043:1,2003-02-02T23:39:00Z,28.9818,-94.9186,16.6,11144222 
TABS,ioos:station:wmo:42043:1,2003-02-03T00:09:00Z,28.9818,-94.9186,16.5,11144222 
TABS,ioos:station:wmo:42043:1,2003-02-03T00:39:00Z,28.9818,-94.9186,16.6,11144222 
TABS,ioos:station:wmo:42043:1,2003-02-03T01:09:00Z,28.9818,-94.9186,16.6,11144222 
TABS,ioos:station:wmo:42043:1,2003-02-03T01:39:00Z,28.9818,-94.9186,16.6,11144222 
TABS,ioos:station:wmo:42043:1,2003-02-03T02:09:00Z,28.9818,-94.9186,16.6,11144222 
TABS,ioos:station:wmo:42043:1,2003-02-03T02:39:00Z,28.9818,-94.9186,16.4,11144222 
TABS,ioos:station:wmo:42043:1,2003-02-03T03:09:00Z,28.9818,-94.9186,16.5,11144222 
TABS,ioos:station:wmo:42043:1,2003-02-03T03:39:00Z,28.9818,-94.9186,16.4,11144222 
TABS,ioos:station:wmo:42043:1,2003-02-03T04:09:00Z,28.9818,-94.9186,16.5,11144222 
TABS,ioos:station:wmo:42043:1,2003-02-03T04:39:00Z,28.9818,-94.9186,16.5,11144222 
TABS,ioos:station:wmo:42043:1,2003-02-03T05:09:00Z,28.9818,-94.9186,16.4,11144222 
TABS,ioos:station:wmo:42043:1,2003-02-03T05:39:00Z,28.9818,-94.9186,16.3,11144222 
TABS,ioos:station:wmo:42043:1,2003-02-03T06:09:00Z,28.9818,-94.9186,16.2,11144222 
TABS,ioos:station:wmo:42043:1,2003-02-03T06:39:00Z,28.9818,-94.9186,16.2,11144222 
TABS,ioos:station:wmo:42043:1,2003-02-03T07:09:00Z,28.9818,-94.9186,16.1,11144222 
TABS,ioos:station:wmo:42043:1,2003-02-03T07:39:00Z,28.9818,-94.9186,16.1,11144222 
TABS,ioos:station:wmo:42043:1,2003-02-03T08:09:00Z,28.9818,-94.9186,16.4,11144222 
TABS,ioos:station:wmo:42043:1,2003-02-03T08:39:00Z,28.9818,-94.9186,16.5,11144222 
TABS,ioos:station:wmo:42043:1,2003-02-03T09:09:00Z,28.9818,-94.9186,16.6,11144222 
TABS,ioos:station:wmo:42043:1,2003-02-03T09:39:00Z,28.9818,-94.9186,16.4,11144222 
TABS,ioos:station:wmo:42043:1,2003-02-03T10:09:00Z,28.9818,-94.9186,16.6,11144222 
TABS,ioos:station:wmo:42043:1,2003-02-03T10:39:00Z,28.9818,-94.9186,16.7,11144222 
TABS,ioos:station:wmo:42043:1,2003-02-03T11:09:00Z,28.9818,-94.9186,16.7,11144222 
TABS,ioos:station:wmo:42043:1,2003-02-03T11:39:00Z,28.9818,-94.9186,16.9,11144222 
TABS,ioos:station:wmo:42043:1,2003-02-03T12:09:00Z,28.9818,-94.9186,16.8,11144222 
TABS,ioos:station:wmo:42043:1,2003-02-03T12:39:00Z,28.9818,-94.9186,16.7,11144222 
TABS,ioos:station:wmo:42043:1,2003-02-03T13:09:00Z,28.9818,-94.9186,16.8,11144222 
TABS,ioos:station:wmo:42043:1,2003-02-03T13:39:00Z,28.9818,-94.9186,17.0,11144222 
TABS,ioos:station:wmo:42043:1,2003-02-03T14:09:00Z,28.9818,-94.9186,18.0,11144222 
TABS,ioos:station:wmo:42043:1,2003-02-03T14:39:00Z,28.9818,-94.9186,17.5,11144222 
TABS,ioos:station:wmo:42043:1,2003-02-03T15:09:00Z,28.9818,-94.9186,17.4,11144222 
TABS,ioos:station:wmo:42043:1,2003-02-03T15:39:00Z,28.9818,-94.9186,16.9,11144222 
TABS,ioos:station:wmo:42043:1,2003-02-03T16:09:00Z,28.9818,-94.9186,17.1,11144222 
TABS,ioos:station:wmo:42043:1,2003-02-03T16:39:00Z,28.9818,-94.9186,16.6,11144222 
TABS,ioos:station:wmo:42043:1,2003-02-03T17:09:00Z,28.9818,-94.9186,16.9,11144222 
TABS,ioos:station:wmo:42043:1,2003-02-03T17:39:00Z,28.9818,-94.9186,16.2,11144222 
TABS,ioos:station:wmo:42043:1,2003-02-03T18:09:00Z,28.9818,-94.9186,15.9,11144222 
TABS,ioos:station:wmo:42043:1,2003-02-03T18:39:00Z,28.9818,-94.9186,15.7,11144222 
TABS,ioos:station:wmo:42043:1,2003-02-03T19:09:00Z,28.9818,-94.9186,16.2,11144222 
TABS,ioos:station:wmo:42043:1,2003-02-03T19:39:00Z,28.9818,-94.9186,16.3,11144222 
TABS,ioos:station:wmo:42043:1,2003-02-03T20:09:00Z,28.9818,-94.9186,16.3,11144222 
TABS,ioos:station:wmo:42043:1,2003-02-03T20:39:00Z,28.9818,-94.9186,16.3,11144222 
TABS,ioos:station:wmo:42043:1,2003-02-03T21:09:00Z,28.9818,-94.9186,16.3,11144222 
TABS,ioos:station:wmo:42043:1,2003-02-03T21:39:00Z,28.9818,-94.9186,16.6,11144222 
TABS,ioos:station:wmo:42043:1,2003-02-03T22:09:00Z,28.9818,-94.9186,16.6,11144222 
TABS,ioos:station:wmo:42043:1,2003-02-03T22:39:00Z,28.9818,-94.9186,16.7,11144222 
TABS,ioos:station:wmo:42043:1,2003-02-03T23:09:00Z,28.9818,-94.9186,16.7,11144222 
TABS,ioos:station:wmo:42043:1,2003-02-03T23:39:00Z,28.9818,-94.9186,16.4,11144222 
TABS,ioos:station:wmo:42043:1,2003-02-04T00:09:00Z,28.9818,-94.9186,16.2,11144222 
TABS,ioos:station:wmo:42043:1,2003-02-04T00:39:00Z,28.9818,-94.9186,16.5,11144222 
TABS,ioos:station:wmo:42043:1,2003-02-04T01:09:00Z,28.9818,-94.9186,16.4,11144222 
TABS,ioos:station:wmo:42043:1,2003-02-04T01:39:00Z,28.9818,-94.9186,16.2,11144222 
TABS,ioos:station:wmo:42043:1,2003-02-04T02:09:00Z,28.9818,-94.9186,17.3,11144222 
TABS,ioos:station:wmo:42043:1,2003-02-04T02:39:00Z,28.9818,-94.9186,17.6,11144222 
TABS,ioos:station:wmo:42043:1,2003-02-04T03:09:00Z,28.9818,-94.9186,17.8,11144222 
TABS,ioos:station:wmo:42043:1,2003-02-04T03:39:00Z,28.9818,-94.9186,17.5,11144222 
TABS,ioos:station:wmo:42043:1,2003-02-04T04:09:00Z,28.9818,-94.9186,16.8,11144222 
TABS,ioos:station:wmo:42043:1,2003-02-04T04:39:00Z,28.9818,-94.9186,16.7,11144222 
TABS,ioos:station:wmo:42043:1,2003-02-04T05:09:00Z,28.9818,-94.9186,16.3,11144222 
TABS,ioos:station:wmo:42043:1,2003-02-04T05:39:00Z,28.9818,-94.9186,16.1,11144222 
TABS,ioos:station:wmo:42043:1,2003-02-04T06:09:00Z,28.9818,-94.9186,15.9,11144222 
TABS,ioos:station:wmo:42043:1,2003-02-04T06:39:00Z,28.9818,-94.9186,15.6,11144222 
TABS,ioos:station:wmo:42043:1,2003-02-04T07:09:00Z,28.9818,-94.9186,15.3,11144222 
TABS,ioos:station:wmo:42043:1,2003-02-04T07:39:00Z,28.9818,-94.9186,14.8,11144222 
TABS,ioos:station:wmo:42043:1,2003-02-04T08:09:00Z,28.9818,-94.9186,14.4,11144222 
TABS,ioos:station:wmo:42043:1,2003-02-04T08:39:00Z,28.9818,-94.9186,13.9,11144222 
TABS,ioos:station:wmo:42043:1,2003-02-04T09:09:00Z,28.9818,-94.9186,13.5,11144222 
TABS,ioos:station:wmo:42043:1,2003-02-04T09:39:00Z,28.9818,-94.9186,13.4,11144222 
TABS,ioos:station:wmo:42043:1,2003-02-04T10:09:00Z,28.9818,-94.9186,13.1,11144222 
TABS,ioos:station:wmo:42043:1,2003-02-04T10:39:00Z,28.9818,-94.9186,12.8,11144222 
TABS,ioos:station:wmo:42043:1,2003-02-04T11:09:00Z,28.9818,-94.9186,12.5,11144222 
TABS,ioos:station:wmo:42043:1,2003-02-04T11:39:00Z,28.9818,-94.9186,12.2,11144222 
TABS,ioos:station:wmo:42043:1,2003-02-04T12:09:00Z,28.9818,-94.9186,12.1,11144222 
TABS,ioos:station:wmo:42043:1,2003-02-04T12:39:00Z,28.9818,-94.9186,11.7,11144222 
TABS,ioos:station:wmo:42043:1,2003-02-04T13:09:00Z,28.9818,-94.9186,11.7,11144222 
TABS,ioos:station:wmo:42043:1,2003-02-04T13:39:00Z,28.9818,-94.9186,11.5,11144222 
TABS,ioos:station:wmo:42043:1,2003-02-04T14:09:00Z,28.9818,-94.9186,11.2,11144222 
TABS,ioos:station:wmo:42043:1,2003-02-04T14:39:00Z,28.9818,-94.9186,11.1,11144222 
TABS,ioos:station:wmo:42043:1,2003-02-04T15:09:00Z,28.9818,-94.9186,11.0,11144222 
TABS,ioos:station:wmo:42043:1,2003-02-04T15:39:00Z,28.9818,-94.9186,10.8,11144222 
TABS,ioos:station:wmo:42043:1,2003-02-04T16:09:00Z,28.9818,-94.9186,10.7,11144222 
TABS,ioos:station:wmo:42043:1,2003-02-04T16:39:00Z,28.9818,-94.9186,10.8,11144222 
TABS,ioos:station:wmo:42043:1,2003-02-04T17:09:00Z,28.9818,-94.9186,10.8,11144222 
TABS,ioos:station:wmo:42043:1,2003-02-04T17:39:00Z,28.9818,-94.9186,11.0,11144222 
TABS,ioos:station:wmo:42043:1,2003-02-04T18:09:00Z,28.9818,-94.9186,11.2,11144222 
TABS,ioos:station:wmo:42043:1,2003-02-04T18:39:00Z,28.9818,-94.9186,11.2,11144222 
TABS,ioos:station:wmo:42043:1,2003-02-04T19:09:00Z,28.9818,-94.9186,11.4,11144222 
TABS,ioos:station:wmo:42043:1,2003-02-04T19:39:00Z,28.9818,-94.9186,11.6,11144222 
TABS,ioos:station:wmo:42043:1,2003-02-04T20:09:00Z,28.9818,-94.9186,11.9,11144222 
TABS,ioos:station:wmo:42043:1,2003-02-04T20:39:00Z,28.9818,-94.9186,12.1,11144222 
TABS,ioos:station:wmo:42043:1,2003-02-04T21:09:00Z,28.9818,-94.9186,12.5,11144222 
TABS,ioos:station:wmo:42043:1,2003-02-04T21:39:00Z,28.9818,-94.9186,12.6,11144222 
TABS,ioos:station:wmo:42043:1,2003-02-04T22:09:00Z,28.9818,-94.9186,12.9,11144222 
TABS,ioos:station:wmo:42043:1,2003-02-04T22:39:00Z,28.9818,-94.9186,13.0,11144222 
TABS,ioos:station:wmo:42043:1,2003-02-04T23:09:00Z,28.9818,-94.9186,12.6,11144222 
TABS,ioos:station:wmo:42043:1,2003-02-04T23:39:00Z,28.9818,-94.9186,12.5,11144222 
TABS,ioos:station:wmo:42043:1,2003-02-05T00:09:00Z,28.9818,-94.9186,12.6,11144222 
TABS,ioos:station:wmo:42043:1,2003-02-05T00:39:00Z,28.9818,-94.9186,12.8,11144222 
TABS,ioos:station:wmo:42043:1,2003-02-05T01:09:00Z,28.9818,-94.9186,12.9,11144222 
TABS,ioos:station:wmo:42043:1,2003-02-05T01:39:00Z,28.9818,-94.9186,13.0,11144222 
TABS,ioos:station:wmo:42043:1,2003-02-05T02:09:00Z,28.9818,-94.9186,13.1,11144222 
TABS,ioos:station:wmo:42043:1,2003-02-05T02:39:00Z,28.9818,-94.9186,13.2,11144222 
TABS,ioos:station:wmo:42043:1,2003-02-05T03:09:00Z,28.9818,-94.9186,13.2,11144222 
TABS,ioos:station:wmo:42043:1,2003-02-05T03:39:00Z,28.9818,-94.9186,13.4,11144222 
TABS,ioos:station:wmo:42043:1,2003-02-05T04:09:00Z,28.9818,-94.9186,13.5,11144222 
TABS,ioos:station:wmo:42043:1,2003-02-05T04:39:00Z,28.9818,-94.9186,13.5,11144222 
TABS,ioos:station:wmo:42043:1,2003-02-05T05:09:00Z,28.9818,-94.9186,13.7,11144222 
TABS,ioos:station:wmo:42043:1,2003-02-05T05:39:00Z,28.9818,-94.9186,13.8,11144222 
TABS,ioos:station:wmo:42043:1,2003-02-05T06:09:00Z,28.9818,-94.9186,13.9,11144222 
TABS,ioos:station:wmo:42043:1,2003-02-05T06:39:00Z,28.9818,-94.9186,14.1,11144222 
TABS,ioos:station:wmo:42043:1,2003-02-05T07:09:00Z,28.9818,-94.9186,14.1,11144222 
TABS,ioos:station:wmo:42043:1,2003-02-05T07:39:00Z,28.9818,-94.9186,14.1,11144222 
TABS,ioos:station:wmo:42043:1,2003-02-05T08:09:00Z,28.9818,-94.9186,14.0,11144222 
TABS,ioos:station:wmo:42043:1,2003-02-05T08:39:00Z,28.9818,-94.9186,13.9,11144222 
TABS,ioos:station:wmo:42043:1,2003-02-05T09:09:00Z,28.9818,-94.9186,14.0,11144222 
TABS,ioos:station:wmo:42043:1,2003-02-05T09:39:00Z,28.9818,-94.9186,14.0,11144222 
TABS,ioos:station:wmo:42043:1,2003-02-05T10:09:00Z,28.9818,-94.9186,14.1,11144222 
TABS,ioos:station:wmo:42043:1,2003-02-05T10:39:00Z,28.9818,-94.9186,14.0,11144222 
TABS,ioos:station:wmo:42043:1,2003-02-05T11:09:00Z,28.9818,-94.9186,13.9,11144222 
TABS,ioos:station:wmo:42043:1,2003-02-05T11:39:00Z,28.9818,-94.9186,13.7,11144222 
TABS,ioos:station:wmo:42043:1,2003-02-05T12:09:00Z,28.9818,-94.9186,13.7,11144222 
TABS,ioos:station:wmo:42043:1,2003-02-05T12:39:00Z,28.9818,-94.9186,13.8,11144222 
TABS,ioos:station:wmo:42043:1,2003-02-05T13:09:00Z,28.9818,-94.9186,13.9,11144222 
TABS,ioos:station:wmo:42043:1,2003-02-05T13:39:00Z,28.9818,-94.9186,14.1,11144222 
TABS,ioos:station:wmo:42043:1,2003-02-05T14:09:00Z,28.9818,-94.9186,14.2,11144222 
TABS,ioos:station:wmo:42043:1,2003-02-05T14:39:00Z,28.9818,-94.9186,14.5,11144222 
TABS,ioos:station:wmo:42043:1,2003-02-05T15:09:00Z,28.9818,-94.9186,14.4,11144222 
TABS,ioos:station:wmo:42043:1,2003-02-05T15:39:00Z,28.9818,-94.9186,14.5,11144222 
TABS,ioos:station:wmo:42043:1,2003-02-05T16:09:00Z,28.9818,-94.9186,14.4,11144222 
TABS,ioos:station:wmo:42043:1,2003-02-05T16:39:00Z,28.9818,-94.9186,14.4,11144222 
TABS,ioos:station:wmo:42043:1,2003-02-05T17:09:00Z,28.9818,-94.9186,14.4,11144222 
TABS,ioos:station:wmo:42043:1,2003-02-05T17:39:00Z,28.9818,-94.9186,14.4,11144222 
TABS,ioos:station:wmo:42043:1,2003-02-05T18:09:00Z,28.9818,-94.9186,14.3,11144222 
TABS,ioos:station:wmo:42043:1,2003-02-05T18:39:00Z,28.9818,-94.9186,14.3,11144222 
TABS,ioos:station:wmo:42043:1,2003-02-05T19:09:00Z,28.9818,-94.9186,14.5,11144222 
TABS,ioos:station:wmo:42043:1,2003-02-05T19:39:00Z,28.9818,-94.9186,14.7,11144222 
TABS,ioos:station:wmo:42043:1,2003-02-05T20:09:00Z,28.9818,-94.9186,14.7,11144222 
TABS,ioos:station:wmo:42043:1,2003-02-05T20:39:00Z,28.9818,-94.9186,14.8,11144222 
TABS,ioos:station:wmo:42043:1,2003-02-05T21:09:00Z,28.9818,-94.9186,14.8,11144222 
TABS,ioos:station:wmo:42043:1,2003-02-05T21:39:00Z,28.9818,-94.9186,14.8,11144222 
TABS,ioos:station:wmo:42043:1,2003-02-05T22:09:00Z,28.9818,-94.9186,14.9,11144222 
TABS,ioos:station:wmo:42043:1,2003-02-05T22:39:00Z,28.9818,-94.9186,14.9,11144222 
TABS,ioos:station:wmo:42043:1,2003-02-05T23:09:00Z,28.9818,-94.9186,14.7,11144222 
TABS,ioos:station:wmo:42043:1,2003-02-05T23:39:00Z,28.9818,-94.9186,14.5,11144222 
TABS,ioos:station:wmo:42043:1,2003-02-06T00:09:00Z,28.9818,-94.9186,14.5,11144222 
TABS,ioos:station:wmo:42043:1,2003-02-06T00:39:00Z,28.9818,-94.9186,14.7,11144222 
TABS,ioos:station:wmo:42043:1,2003-02-06T01:09:00Z,28.9818,-94.9186,14.8,11144222 
TABS,ioos:station:wmo:42043:1,2003-02-06T01:39:00Z,28.9818,-94.9186,14.9,11144222 
TABS,ioos:station:wmo:42043:1,2003-02-06T02:09:00Z,28.9818,-94.9186,15.0,11144222 
TABS,ioos:station:wmo:42043:1,2003-02-06T02:39:00Z,28.9818,-94.9186,15.0,11144222 
TABS,ioos:station:wmo:42043:1,2003-02-06T03:09:00Z,28.9818,-94.9186,15.0,11144222 
TABS,ioos:station:wmo:42043:1,2003-02-06T03:39:00Z,28.9818,-94.9186,15.1,11144222 
TABS,ioos:station:wmo:42043:1,2003-02-06T04:09:00Z,28.9818,-94.9186,15.2,11144222 
TABS,ioos:station:wmo:42043:1,2003-02-06T04:39:00Z,28.9818,-94.9186,15.1,11144222 
TABS,ioos:station:wmo:42043:1,2003-02-06T05:09:00Z,28.9818,-94.9186,15.0,11144222 
TABS,ioos:station:wmo:42043:1,2003-02-06T05:39:00Z,28.9818,-94.9186,15.0,11144222 
TABS,ioos:station:wmo:42043:1,2003-02-06T06:09:00Z,28.9818,-94.9186,15.1,11144222 
TABS,ioos:station:wmo:42043:1,2003-02-06T06:39:00Z,28.9818,-94.9186,15.2,11144222 
TABS,ioos:station:wmo:42043:1,2003-02-06T07:09:00Z,28.9818,-94.9186,15.2,11144222 
TABS,ioos:station:wmo:42043:1,2003-02-06T07:39:00Z,28.9818,-94.9186,15.2,11144222 
TABS,ioos:station:wmo:42043:1,2003-02-06T08:09:00Z,28.9818,-94.9186,15.4,11144222 
TABS,ioos:station:wmo:42043:1,2003-02-06T08:39:00Z,28.9818,-94.9186,15.5,11144222 
TABS,ioos:station:wmo:42043:1,2003-02-06T09:09:00Z,28.9818,-94.9186,15.4,11144222 
TABS,ioos:station:wmo:42043:1,2003-02-06T09:39:00Z,28.9818,-94.9186,15.5,11144222 
TABS,ioos:station:wmo:42043:1,2003-02-06T10:09:00Z,28.9818,-94.9186,15.6,11144222 
TABS,ioos:station:wmo:42043:1,2003-02-06T10:39:00Z,28.9818,-94.9186,15.5,11144222 
TABS,ioos:station:wmo:42043:1,2003-02-06T11:09:00Z,28.9818,-94.9186,15.6,11144222 
TABS,ioos:station:wmo:42043:1,2003-02-06T11:39:00Z,28.9818,-94.9186,15.6,11144222 
TABS,ioos:station:wmo:42043:1,2003-02-06T12:09:00Z,28.9818,-94.9186,15.7,11144222 
TABS,ioos:station:wmo:42043:1,2003-02-06T12:39:00Z,28.9818,-94.9186,17.7,11144222 
TABS,ioos:station:wmo:42043:1,2003-02-06T13:09:00Z,28.9818,-94.9186,16.4,11144222 
TABS,ioos:station:wmo:42043:1,2003-02-06T13:39:00Z,28.9818,-94.9186,16.4,11144222 
TABS,ioos:station:wmo:42043:1,2003-02-06T14:09:00Z,28.9818,-94.9186,16.2,11144222 
TABS,ioos:station:wmo:42043:1,2003-02-06T14:39:00Z,28.9818,-94.9186,16.4,11144222 
TABS,ioos:station:wmo:42043:1,2003-02-06T15:09:00Z,28.9818,-94.9186,16.5,11144222 
TABS,ioos:station:wmo:42043:1,2003-02-06T15:39:00Z,28.9818,-94.9186,16.8,11144222 
TABS,ioos:station:wmo:42043:1,2003-02-06T16:09:00Z,28.9818,-94.9186,16.7,11144222 
TABS,ioos:station:wmo:42043:1,2003-02-06T16:39:00Z,28.9818,-94.9186,16.7,11144222 
TABS,ioos:station:wmo:42043:1,2003-02-06T17:09:00Z,28.9818,-94.9186,17.0,11144222 
TABS,ioos:station:wmo:42043:1,2003-02-06T17:39:00Z,28.9818,-94.9186,16.5,11144222 
TABS,ioos:station:wmo:42043:1,2003-02-06T18:09:00Z,28.9818,-94.9186,13.8,11144222 
TABS,ioos:station:wmo:42043:1,2003-02-06T18:39:00Z,28.9818,-94.9186,11.8,11144222 
TABS,ioos:station:wmo:42043:1,2003-02-06T19:09:00Z,28.9818,-94.9186,11.2,11144222 
TABS,ioos:station:wmo:42043:1,2003-02-06T19:39:00Z,28.9818,-94.9186,11.3,11144222 
TABS,ioos:station:wmo:42043:1,2003-02-06T20:09:00Z,28.9818,-94.9186,11.7,11144222 
TABS,ioos:station:wmo:42043:1,2003-02-06T20:39:00Z,28.9818,-94.9186,11.9,11144222 
TABS,ioos:station:wmo:42043:1,2003-02-06T21:09:00Z,28.9818,-94.9186,12.2,11144222 
TABS,ioos:station:wmo:42043:1,2003-02-06T21:39:00Z,28.9818,-94.9186,12.3,11144222 
TABS,ioos:station:wmo:42043:1,2003-02-06T22:09:00Z,28.9818,-94.9186,12.4,11144222 
TABS,ioos:station:wmo:42043:1,2003-02-06T22:39:00Z,28.9818,-94.9186,12.5,11144222 
TABS,ioos:station:wmo:42043:1,2003-02-06T23:09:00Z,28.9818,-94.9186,12.7,11144222 
TABS,ioos:station:wmo:42043:1,2003-02-06T23:39:00Z,28.9818,-94.9186,12.9,11144222 
TABS,ioos:station:wmo:42043:1,2003-02-07T00:09:00Z,28.9818,-94.9186,12.8,11144222 
TABS,ioos:station:wmo:42043:1,2003-02-07T00:39:00Z,28.9818,-94.9186,12.5,11144222 
TABS,ioos:station:wmo:42043:1,2003-02-07T01:09:00Z,28.9818,-94.9186,12.5,11144222 
TABS,ioos:station:wmo:42043:1,2003-02-07T01:39:00Z,28.9818,-94.9186,12.4,11144222 
TABS,ioos:station:wmo:42043:1,2003-02-07T02:09:00Z,28.9818,-94.9186,12.2,11144222 
TABS,ioos:station:wmo:42043:1,2003-02-07T02:39:00Z,28.9818,-94.9186,12.2,11144222 
TABS,ioos:station:wmo:42043:1,2003-02-07T03:09:00Z,28.9818,-94.9186,12.1,11144222 
TABS,ioos:station:wmo:42043:1,2003-02-07T03:39:00Z,28.9818,-94.9186,11.7,11144222 
TABS,ioos:station:wmo:42043:1,2003-02-07T04:09:00Z,28.9818,-94.9186,11.5,11144222 
TABS,ioos:station:wmo:42043:1,2003-02-07T04:39:00Z,28.9818,-94.9186,11.2,11144222 
TABS,ioos:station:wmo:42043:1,2003-02-07T05:09:00Z,28.9818,-94.9186,11.1,11144222 
TABS,ioos:station:wmo:42043:1,2003-02-07T05:39:00Z,28.9818,-94.9186,11.0,11144222 
TABS,ioos:station:wmo:42043:1,2003-02-07T06:09:00Z,28.9818,-94.9186,10.7,11144222 
TABS,ioos:station:wmo:42043:1,2003-02-07T06:39:00Z,28.9818,-94.9186,10.8,11144222 
TABS,ioos:station:wmo:42043:1,2003-02-07T07:09:00Z,28.9818,-94.9186,10.7,11144222 
TABS,ioos:station:wmo:42043:1,2003-02-07T07:39:00Z,28.9818,-94.9186,10.7,11144222 
TABS,ioos:station:wmo:42043:1,2003-02-07T08:09:00Z,28.9818,-94.9186,10.5,11144222 
TABS,ioos:station:wmo:42043:1,2003-02-07T08:39:00Z,28.9818,-94.9186,10.5,11144222 
TABS,ioos:station:wmo:42043:1,2003-02-07T09:09:00Z,28.9818,-94.9186,10.6,11144222 
TABS,ioos:station:wmo:42043:1,2003-02-07T09:39:00Z,28.9818,-94.9186,10.5,11144222 
TABS,ioos:station:wmo:42043:1,2003-02-07T10:09:00Z,28.9818,-94.9186,10.3,11144222 
TABS,ioos:station:wmo:42043:1,2003-02-07T10:39:00Z,28.9818,-94.9186,10.1,11144222 
TABS,ioos:station:wmo:42043:1,2003-02-07T11:09:00Z,28.9818,-94.9186,10.0,11144222 
TABS,ioos:station:wmo:42043:1,2003-02-07T11:39:00Z,28.9818,-94.9186,10.1,11144222 
TABS,ioos:station:wmo:42043:1,2003-02-07T12:09:00Z,28.9818,-94.9186,10.1,11144222 
TABS,ioos:station:wmo:42043:1,2003-02-07T12:39:00Z,28.9818,-94.9186,10.1,11144222 
TABS,ioos:station:wmo:42043:1,2003-02-07T13:09:00Z,28.9818,-94.9186,10.1,11144222 
TABS,ioos:station:wmo:42043:1,2003-02-07T13:39:00Z,28.9818,-94.9186,10.0,11144222 
TABS,ioos:station:wmo:42043:1,2003-02-07T14:09:00Z,28.9818,-94.9186,9.9,11144222 
TABS,ioos:station:wmo:42043:1,2003-02-07T14:39:00Z,28.9818,-94.9186,9.6,11144222 
TABS,ioos:station:wmo:42043:1,2003-02-07T15:09:00Z,28.9818,-94.9186,9.3,11144222 
TABS,ioos:station:wmo:42043:1,2003-02-07T15:39:00Z,28.9818,-94.9186,9.4,11144222 
TABS,ioos:station:wmo:42043:1,2003-02-07T16:09:00Z,28.9818,-94.9186,9.3,11144222 